TimeCDT,TemperatureF,Dew PointF,Humidity,Sea Level PressureIn,VisibilityMPH,Wind Direction,Wind SpeedMPH,Gust SpeedMPH,PrecipitationIn,Events,Conditions,WindDirDegrees,DateUTC
12:53 AM,55.9,48.9,77,30.20,-9999.0,Calm,Calm,-,N/A,,Overcast,0,2012-10-11 05:53:00
1:53 AM,55.9,48.0,75,30.20,-9999.0,ENE,3.5,-,N/A,,Overcast,60,2012-10-11 06:53:00
2:53 AM,55.9,46.9,72,30.19,-9999.0,East,4.6,-,N/A,,Overcast,80,2012-10-11 07:53:00
3:53 AM,55.9,48.0,75,30.19,-9999.0,Calm,Calm,-,N/A,,Overcast,0,2012-10-11 08:53:00
4:53 AM,57.0,46.9,69,30.20,-9999.0,Calm,Calm,-,N/A,,Overcast,0,2012-10-11 09:53:00
5:53 AM,57.0,46.0,67,30.22,-9999.0,Calm,Calm,-,N/A,,Overcast,0,2012-10-11 10:53:00
6:53 AM,55.9,46.0,69,30.22,-9999.0,ESE,4.6,-,0.00,,Overcast,120,2012-10-11 11:53:00
7:53 AM,57.0,48.0,72,30.23,-9999.0,ENE,3.5,-,N/A,,Overcast,70,2012-10-11 12:53:00
8:53 AM,57.0,48.9,74,30.23,-9999.0,ESE,5.8,-,N/A,,Overcast,120,2012-10-11 13:53:00
9:53 AM,62.1,48.9,62,30.23,-9999.0,SSE,8.1,-,N/A,,Mostly Cloudy,150,2012-10-11 14:53:00
10:53 AM,64.0,52.0,65,30.24,-9999.0,Calm,Calm,-,N/A,,Overcast,0,2012-10-11 15:53:00
11:04 AM,64.4,51.8,64,30.24,-9999.0,East,3.5,-,N/A,,Overcast,100,2012-10-11 16:04:00
11:53 AM,66.9,54.0,63,30.23,-9999.0,Calm,Calm,-,N/A,,Unknown,0,2012-10-11 16:53:00
12:53 PM,70.0,57.0,63,30.21,-9999.0,South,3.5,-,N/A,,Overcast,170,2012-10-11 17:53:00
1:53 PM,72.0,61.0,68,30.18,-9999.0,Calm,Calm,-,N/A,,Partly Cloudy,0,2012-10-11 18:53:00
2:53 PM,75.9,63.0,64,30.16,-9999.0,SSW,6.9,-,N/A,,Unknown,210,2012-10-11 19:53:00
3:53 PM,78.1,64.9,64,30.15,10.0,Calm,Calm,-,N/A,,Clear,0,2012-10-11 20:53:00
4:53 PM,78.1,66.0,66,30.15,10.0,SSW,4.6,-,N/A,,Clear,210,2012-10-11 21:53:00
5:53 PM,77.0,66.0,69,30.14,10.0,Calm,Calm,-,N/A,,Scattered Clouds,0,2012-10-11 22:53:00
6:53 PM,71.1,66.9,87,30.14,10.0,ESE,3.5,-,N/A,,Clear,120,2012-10-11 23:53:00
7:53 PM,69.1,66.9,93,30.14,10.0,Calm,Calm,-,N/A,,Clear,0,2012-10-12 00:53:00
8:53 PM,66.9,66.0,97,30.16,8.0,SE,4.6,-,N/A,,Clear,130,2012-10-12 01:53:00
9:53 PM,66.0,64.9,96,30.17,7.0,Calm,Calm,-,N/A,,Clear,0,2012-10-12 02:53:00
10:53 PM,64.9,64.0,97,30.17,2.5,Calm,Calm,-,N/A,,Clear,0,2012-10-12 03:53:00
11:05 PM,64.4,64.4,100,30.17,1.2,Calm,Calm,-,N/A,,Clear,0,2012-10-12 04:05:00
11:17 PM,64.4,64.4,100,30.17,3.0,Calm,Calm,-,N/A,,Clear,0,2012-10-12 04:17:00
11:49 PM,64.4,64.4,100,30.17,1.8,Calm,Calm,-,N/A,,Clear,0,2012-10-12 04:49:00
11:53 PM,64.0,64.0,100,30.17,1.0,Calm,Calm,-,N/A,,Clear,0,2012-10-12 04:53:00